EWG4YJ LOWG-EDDL

Flight info

Callsign EWG4YJ
Flight time N/A
Altitude 38000
Route MILGO6G/16C MILGO DCT DEXIT L850 LALIN L604 SULUS T852 TESDU DCT AMETU T852 TINSA T854 DOMUX DOMUX1A
Aircraft A320/M-SDE3FGHIRWY/LB1

Departure

Time N/A
Airport Graz Airport (LOWG)

Arrival

Time 2026-05-03 21:24
Airport Düsseldorf Airport (EDDL)
Time Latitude Longitude Altitude Speed Heading
2026-05-03 21:04 50.96917 8.69310 30030 ft 398 kts 302°
2026-05-03 21:05 50.98617 8.65870 29434 ft 394 kts 302°
2026-05-03 21:05 51.00271 8.62514 28856 ft 390 kts 302°
2026-05-03 21:05 51.01783 8.58939 28279 ft 379 kts 291°
2026-05-03 21:05 51.02813 8.55156 27722 ft 370 kts 285°
2026-05-03 21:06 51.03735 8.51411 27197 ft 368 kts 284°
2026-05-03 21:06 51.04665 8.47642 26662 ft 365 kts 284°
2026-05-03 21:06 51.05591 8.43905 26125 ft 362 kts 285°
2026-05-03 21:06 51.06512 8.40196 25607 ft 359 kts 285°
2026-05-03 21:07 51.07423 8.36518 25092 ft 356 kts 285°
2026-05-03 21:07 51.08324 8.32864 24597 ft 353 kts 285°
2026-05-03 21:07 51.09216 8.29239 24098 ft 350 kts 285°
2026-05-03 21:07 51.10098 8.25644 23614 ft 347 kts 285°
2026-05-03 21:08 51.11008 8.22097 23040 ft 347 kts 291°
2026-05-03 21:08 51.12361 8.18872 22597 ft 351 kts 300°
2026-05-03 21:08 51.13799 8.15739 22324 ft 350 kts 300°
2026-05-03 21:08 51.15230 8.12620 22057 ft 348 kts 300°
2026-05-03 21:09 51.16658 8.09514 21788 ft 347 kts 300°
2026-05-03 21:09 51.18070 8.06441 21287 ft 342 kts 300°
2026-05-03 21:09 51.19494 8.03334 20064 ft 351 kts 300°
2026-05-03 21:09 51.20914 8.00223 19151 ft 351 kts 301°
2026-05-03 21:10 51.22344 7.97090 18360 ft 347 kts 301°
2026-05-03 21:10 51.23757 7.93993 17483 ft 343 kts 301°
2026-05-03 21:10 51.25151 7.90926 16633 ft 339 kts 301°
2026-05-03 21:10 51.26527 7.87895 15815 ft 335 kts 301°
2026-05-03 21:11 51.27888 7.84893 15019 ft 332 kts 301°
2026-05-03 21:11 51.29232 7.81923 14246 ft 328 kts 301°
2026-05-03 21:11 51.30565 7.78982 13447 ft 325 kts 301°
2026-05-03 21:11 51.31880 7.76068 12617 ft 321 kts 301°
2026-05-03 21:12 51.33178 7.73191 11789 ft 317 kts 302°
2026-05-03 21:12 51.34455 7.70363 11232 ft 308 kts 302°
2026-05-03 21:12 51.35704 7.67596 10920 ft 303 kts 302°
2026-05-03 21:12 51.36913 7.64913 10775 ft 293 kts 302°
2026-05-03 21:13 51.38095 7.62282 10432 ft 289 kts 302°
2026-05-03 21:13 51.39258 7.59689 9808 ft 285 kts 302°
2026-05-03 21:13 51.40404 7.57139 9280 ft 276 kts 301°
2026-05-03 21:13 51.41304 7.54553 8891 ft 267 kts 288°
2026-05-03 21:14 51.41767 7.51716 8513 ft 261 kts 274°
2026-05-03 21:14 51.41789 7.48837 8139 ft 257 kts 264°
2026-05-03 21:14 51.41673 7.45981 7756 ft 257 kts 264°
2026-05-03 21:14 51.41565 7.43134 7377 ft 255 kts 264°
2026-05-03 21:15 51.41459 7.40305 6987 ft 254 kts 265°
2026-05-03 21:15 51.41353 7.37488 6595 ft 253 kts 265°
2026-05-03 21:15 51.41247 7.34678 6188 ft 252 kts 265°
2026-05-03 21:15 51.41141 7.31882 5778 ft 251 kts 265°
2026-05-03 21:16 51.41034 7.29098 5372 ft 249 kts 265°
2026-05-03 21:16 51.40927 7.26336 4971 ft 247 kts 264°
2026-05-03 21:16 51.40821 7.23593 4563 ft 246 kts 264°
2026-05-03 21:16 51.40718 7.20875 4252 ft 241 kts 264°
2026-05-03 21:17 51.40616 7.18284 4196 ft 225 kts 264°
2026-05-03 21:17 51.40552 7.16657 4124 ft 217 kts 264°
2026-05-03 21:17 51.40428 7.13548 4005 ft 202 kts 264°
2026-05-03 21:17 51.40339 7.11377 4013 ft 191 kts 264°
2026-05-03 21:18 51.40255 7.09320 4001 ft 181 kts 264°
2026-05-03 21:18 51.40175 7.07366 4028 ft 168 kts 263°
2026-05-03 21:18 51.40106 7.05602 4008 ft 151 kts 263°
2026-05-03 21:18 51.40043 7.03975 3833 ft 145 kts 263°
2026-05-03 21:19 51.39980 7.02408 3673 ft 137 kts 263°
2026-05-03 21:19 51.39853 7.00929 3576 ft 133 kts 252°
2026-05-03 21:19 51.39409 6.99640 3414 ft 133 kts 237°
2026-05-03 21:19 51.38893 6.98407 3256 ft 136 kts 236°
2026-05-03 21:20 51.38353 6.97187 3074 ft 134 kts 235°
2026-05-03 21:20 51.37805 6.95990 2889 ft 133 kts 234°
2026-05-03 21:20 51.37256 6.94810 2720 ft 132 kts 234°
2026-05-03 21:20 51.36705 6.93635 2530 ft 132 kts 234°
2026-05-03 21:21 51.36154 6.92466 2352 ft 130 kts 234°
2026-05-03 21:21 51.35608 6.91310 2192 ft 130 kts 233°
2026-05-03 21:21 51.35069 6.90170 2028 ft 130 kts 233°
2026-05-03 21:21 51.34525 6.89020 1841 ft 129 kts 233°
2026-05-03 21:22 51.33981 6.87872 1665 ft 130 kts 232°
2026-05-03 21:22 51.33438 6.86726 1484 ft 129 kts 232°
2026-05-03 21:22 51.32898 6.85589 1311 ft 128 kts 232°
2026-05-03 21:22 51.32359 6.84452 1143 ft 128 kts 232°
2026-05-03 21:23 51.31820 6.83316 964 ft 128 kts 231°
2026-05-03 21:23 51.31275 6.82170 792 ft 131 kts 231°
2026-05-03 21:23 51.30721 6.81003 629 ft 133 kts 231°
2026-05-03 21:23 51.30169 6.79834 428 ft 130 kts 232°
2026-05-03 21:24 51.29619 6.78672 271 ft 132 kts 231°
2026-05-03 21:24 51.29072 6.77528 135 ft 123 kts 232°
2026-05-03 21:24 51.28640 6.76628 135 ft 78 kts 232°
2026-05-03 21:24 51.28409 6.76147 132 ft 32 kts 231°
2026-05-03 21:25 51.28273 6.76043 135 ft 17 kts 178°
2026-05-03 21:25 51.28220 6.76062 136 ft 0 kts 160°
2026-05-03 21:26 51.28193 6.76092 137 ft 12 kts 126°
2026-05-03 21:27 51.28212 6.76198 137 ft 0 kts 57°
2026-05-03 21:27 51.28211 6.76212 137 ft 7 kts 96°
2026-05-03 21:27 51.28151 6.76300 137 ft 15 kts 132°
2026-05-03 21:27 51.28081 6.76431 137 ft 14 kts 146°
2026-05-03 21:28 51.28023 6.76427 137 ft 5 kts 207°
2026-05-03 21:28 51.28014 6.76418 137 ft 0 kts 208°
2026-05-03 21:28 51.28013 6.76418 137 ft 0 kts 208°